{"data":{"norad_id":69869,"intl_designator":"2026-156A","name":"CAS500-4","alt_names":[],"object_type":"PAYLOAD","status":"ACTIVE","operator":null,"country":"SKOR","launch_date":"2026-07-07","launch_site_code":"AFWTR","launch_vehicle":null,"mission":null,"orbit_class":"UNKNOWN","rcs_meters":null,"size_class":null,"mass_kg":null,"dimensions":null,"purposes":[],"wikipedia_slug":null,"has_3d_model":false,"image_url":null,"decayed_at":null,"tle_current":{"epoch":"2026-09-19T13:43:06.700512Z","epoch_age_seconds":101871,"freshness":"FRESH","line1":"1 69869U 26156A   26262.57160533  .00000254  00000+0  19940-3 0  9992","line2":"2 69869  98.9888 161.5535 0011824   0.8672 359.2512 14.00808477 10394","mean_motion":14.00808477,"eccentricity":0.0011824,"inclination_deg":98.9888,"raan_deg":161.5535,"arg_perigee_deg":0.8672,"mean_anomaly_deg":359.2512,"bstar":0.0001994,"rev_number":1039,"period_min":102.79777882869,"perigee_km":882.40184914966,"apogee_km":899.59189693262,"semimajor_km":7269.1338730411,"source":"CELESTRAK","updated_at":"2026-09-20T09:00:25.162088Z"}}}